Your browser is no longer supported. Please, upgrade your browser.
Filter
Ticker Owner Relationship Date Transaction Cost #Shares Value ($) #Shares Total SEC Form 4
CIENRothenstein David MSr. VP, General CounselAug 15Sale41.112,00082,220273,588Aug 19 01:12 PM
CIENPETRIK ANDREW CVP, CONTROLLERAug 15Sale41.112,00082,22053,479Aug 19 01:00 PM
GETimko Thomas SVice PresidentAug 19Buy8.8310,00088,30010,000Aug 19 12:38 PM
CIENMcFeely ScottSVP, Networking PlatformsAug 15Sale41.111,00041,11083,629Aug 19 12:37 PM
CIENALEXANDER STEPHEN BSVP, Chief Technology OfficerAug 15Sale41.112,500102,775102,443Aug 19 12:34 PM
SYBTHEINTZMAN DAVID PChairman of the BoardAug 19Sale36.622,00073,240147,962Aug 19 12:32 PM
SLCTGlen James H. Jr.DirectorJul 28Option Exercise3.5723,92485,40965,905Aug 19 12:19 PM
SLCTGlen James H. Jr.DirectorNov 03Option Exercise4.063,45114,01169,356Aug 19 12:19 PM
EXTRMEYERCORD EDWARDPRESIDENT AND CEOAug 15Option Exercise0.0021,6780504,094Aug 19 12:16 PM
EXTRGault Robert JChief Revenue OfficerAug 15Option Exercise0.0021,6780247,331Aug 19 12:15 PM
TPLHORIZON KINETICS ASSET MANAGEM10% OwnerAug 16Buy671.464932,902300,479Aug 19 12:12 PM
ARWKostalnick Charles IIChief Supply Chain OfficerAug 16Sale68.113,200217,9528,214Aug 19 12:02 PM
CZWIBianchi Stephen MCEO and PresidentAug 15Buy10.942502,73533,330Aug 19 11:45 AM
CZWIBROUCEK JAMES SEVP/CFO/Treasurer/SecretaryAug 15Buy10.915005,45525,907Aug 19 11:42 AM
CZWIBROUCEK JAMES SEVP/CFO/Treasurer/SecretaryAug 16Buy10.912502,72826,157Aug 19 11:42 AM
TIPTBarnes Michael GeneExecutive ChairmanAug 15Buy6.566,15140,3517,991,821Aug 19 11:40 AM
TIPTBarnes Michael GeneExecutive ChairmanAug 16Buy6.565,93238,9267,997,753Aug 19 11:40 AM
CUICLOUGH WILLIAM JCEO and PresidentAug 16Buy0.7415,00011,037135,166Aug 19 11:34 AM
GAIAMellencamp DaeDirectorAug 16Buy7.255,00036,2485,000Aug 19 11:24 AM
UBSIWeddle Mary KDirectorAug 15Buy35.192,30080,9432,300Aug 19 11:20 AM
SYKScannell Timothy JPresident and COOAug 15Option Exercise53.095,282280,421158,366Aug 19 11:19 AM
SYKScannell Timothy JPresident and COOAug 16Sale217.084,6661,012,872153,700Aug 19 11:19 AM
HSTMCoady Trisha LSenior Vice PresidentAug 16Option Exercise0.001,50003,878Aug 19 11:09 AM
HSTMCollier Michael ManningSenior Vice PresidentAug 16Option Exercise0.001,760011,166Aug 19 11:07 AM
MNRWOLGIN STEVEN BDirectorAug 16Buy13.151,57020,64375,211Aug 19 10:55 AM
CLHBattles Michael LouisEVP and CFOAug 16Sale76.001,00076,00042,367Aug 19 10:52 AM
ASRVWISE ROBERT LDirectorAug 15Buy4.14167692158,179Aug 19 10:51 AM
BKSCHassell Fleetwood SPresidentAug 16Buy18.752,60048,75026,903Aug 19 10:39 AM
BKSCSASS DOUGLAS HExecutive Vice PresidentAug 16Buy18.752,60048,75026,903Aug 19 10:37 AM
BKSCSharry Sheryl GESOP TrusteeAug 16Buy18.752,60048,75026,903Aug 19 10:35 AM
MARSmith Craig S.Pres. Mgn. Dir. Asia PacificAug 16Option Exercise37.3114,915556,48022,669Aug 19 10:31 AM
MARSmith Craig S.Pres. Mgn. Dir. Asia PacificAug 16Sale128.2014,9151,912,0687,754Aug 19 10:31 AM
MROCHE JOYCE MDirectorAug 16Buy16.251,00016,2504,647Aug 19 10:24 AM
FLICVITTORIO MICHAEL NPresident and CEOAug 15Sale21.133,00063,378109,679Aug 19 10:16 AM
LXUWhite Lynn FDirectorAug 16Buy4.2110,00042,10044,689Aug 19 10:00 AM
GOGOMUNDHEIM ROBERT HDirectorAug 15Buy4.206002,520109,844Aug 19 09:48 AM
GOGOMUNDHEIM ROBERT HDirectorAug 16Buy4.204,40018,480114,244Aug 19 09:48 AM
NWFLLAMONT KEVIN MDirectorAug 15Buy32.3650016,180130,117Aug 19 09:27 AM
GABCBawel Zachary WDirectorAug 15Buy30.2438211,5514,535Aug 19 09:26 AM
BANFNORICK RONALD JDirectorAug 15Buy53.002,000106,00026,000Aug 19 09:25 AM
GABCERNST CHRISTINA MDirectorAug 15Buy30.241665,02052,379Aug 19 09:20 AM
ENRGORMAN TIMOTHY WEVP, CFO & CAOAug 15Buy35.7310,000357,33955,072Aug 19 09:14 AM
TURNRendino KevinChairman and CEOAug 16Buy2.082,8005,824625,907Aug 19 09:10 AM
CLVSMAHAFFY PATRICK JPresident and CEOAug 16Buy5.5950,000279,576968,787Aug 19 08:35 AM
SCYXTaglietti MarcoChief Executive OfficerAug 15Buy1.0110,01510,115516,015Aug 19 08:31 AM
APVOMaddux Randy JoeSVP Operations, CMOAug 16Buy0.7625,00019,00075,000Aug 19 08:29 AM
CXOSchroer Brenda RSVP, CFO and TreasurerAug 15Buy69.671,500104,50035,637Aug 19 08:21 AM
MTDRPARKER TIMOTHY E.DirectorAug 15Buy13.943,58449,96124,151Aug 19 08:18 AM
CITSolk StevePresident, Consumer BankingAug 16Buy42.452,00084,90031,292Aug 19 07:58 AM
HBIOGreen James WChief Executive OfficerAug 16Buy2.4910,00024,8501,525,404Aug 19 07:38 AM
STMLBergstein IvanChief Executive OfficerAug 14Sale14.7335,010515,6972,570,801Aug 16 09:30 PM
MTBCDALY JOHN NDirectorAug 15Sale4.615,00023,050124,900Aug 16 09:00 PM
MTBCDALY JOHN NDirectorAug 16Sale4.653,00013,950121,900Aug 16 09:00 PM
RUBIADDANTE FRANKDirectorAug 15Sale9.4012,500117,5001,247,319Aug 16 09:00 PM
JNCECole Hugh MChief Business OfficerAug 14Sale4.106702,74737,880Aug 16 09:00 PM
JNCECole Hugh MChief Business OfficerAug 15Sale4.006482,59237,232Aug 16 09:00 PM
JNCECole Hugh MChief Business OfficerAug 16Sale3.921,0183,99136,214Aug 16 09:00 PM
JNCETrehu ElizabethChief Medical OfficerAug 14Sale4.106702,74760,855Aug 16 08:59 PM
JNCETrehu ElizabethChief Medical OfficerAug 15Sale4.006482,59260,207Aug 16 08:59 PM
JNCETrehu ElizabethChief Medical OfficerAug 16Sale3.921,0183,99159,189Aug 16 08:59 PM
JNCEDrapkin Kimberlee CCFO and TreasurerAug 14Sale4.106702,74748,680Aug 16 08:58 PM
JNCEDrapkin Kimberlee CCFO and TreasurerAug 15Sale4.006482,59248,032Aug 16 08:58 PM
JNCEDrapkin Kimberlee CCFO and TreasurerAug 16Sale3.921,0183,99147,014Aug 16 08:58 PM
ZENSvane MikkelChair and CEOAug 15Sale74.9650,0003,748,0531,328,532Aug 16 08:56 PM
TSLAWilson-Thompson KathleenDirectorAug 14Buy221.7136079,816360Aug 16 08:52 PM
TWLOSmith KarynGeneral Counsel and SecretaryAug 15Sale123.881,954242,05545,421Aug 16 08:49 PM
MODNBlessing JasonChief Executive OfficerAug 16Sale26.124,326112,995356,423Aug 16 08:46 PM
CABOBowker Michael E.Chief Operating OfficerAug 15Sale1246.80300374,0401,718Aug 16 08:37 PM
MODNBarter DavidSVP, Chief Financial OfficerAug 16Sale26.121,52239,755176,420Aug 16 08:36 PM
MODNAnderson, Mark, AlbertSVP, Global ServicesAug 16Sale26.1255014,366128,165Aug 16 08:30 PM
MODNGokhale NeerajSVP, Chief Product OfficerAug 16Sale26.125,736149,824126,714Aug 16 08:23 PM
NKTRLabrucherie Gil MSVP & Chief Financial OfficerAug 14Option Exercise7.2125,000180,250152,935Aug 16 08:13 PM
NKTRLabrucherie Gil MSVP & Chief Financial OfficerAug 14Sale17.7925,000444,750127,935Aug 16 08:13 PM
TWLOHu GeorgeChief Operating OfficerAug 15Sale123.887,670950,135178,531Aug 16 08:09 PM
VCRACarlen Douglas AlanGeneral CounselAug 15Sale23.993,00071,97075,840Aug 16 08:08 PM
ZNGABuckley JeffreyChief Accounting OfficerAug 15Option Exercise0.0018,750073,337Aug 16 08:06 PM
EXELMORRISSEY MICHAELPresident and CEOAug 14Option Exercise7.1850,000359,000200,109Aug 16 08:02 PM
EXELMORRISSEY MICHAELPresident and CEOAug 14Sale20.1135,040704,654165,069Aug 16 08:02 PM
ZNGABromberg Matthew SChief Operating OfficerAug 15Option Exercise0.57158,50090,785756,458Aug 16 07:37 PM
ZNGABromberg Matthew SChief Operating OfficerAug 15Sale5.6841,500235,720686,482Aug 16 07:37 PM
BXBlackstone Group Inc10% OwnerAug 14Buy7.89100,000789,000364,708Aug 16 07:35 PM
BXBlackstone Group Inc10% OwnerAug 15Buy7.95100,000795,000464,708Aug 16 07:35 PM
BXBlackstone Group Inc10% OwnerAug 16Buy7.9846,500371,070511,208Aug 16 07:35 PM
BLLTAYLOR STUART A IIDirectorAug 14Sale77.0524,0001,849,200146,966Aug 16 07:21 PM
BLLTAYLOR STUART A IIDirectorAug 15Sale77.7724,0001,866,449122,966Aug 16 07:21 PM
POWISutherland BenVP of SalesAug 15Sale83.7736430,49141,371Aug 16 07:12 PM
FBSandberg SherylChief Operating OfficerAug 15Option Exercise0.0098,85201,411,697Aug 16 07:12 PM
FBSandberg SherylChief Operating OfficerAug 14Sale181.6255,0009,989,3361,312,845Aug 16 07:12 PM
MMSILAMPROPOULOS FRED PPresident & CEOAug 15Sale36.8640,0001,474,4801,079,991Aug 16 07:11 PM
SWKSALDRICH DAVID JDirectorAug 16Option Exercise60.9799960,909204,031Aug 16 07:08 PM
SWKSALDRICH DAVID JDirectorAug 16Sale76.4599976,374203,032Aug 16 07:08 PM
BBSIHICKS JAMES BDirectorAug 15Option Exercise13.382,00026,76017,618Aug 16 07:07 PM
BBSIHICKS JAMES BDirectorAug 15Sale85.202,176185,39715,442Aug 16 07:07 PM
NWHMHEESCHEN PAUL CDirectorAug 15Buy3.905,00019,50085,326Aug 16 07:04 PM
VGMASAREK ALANChief Executive OfficerAug 14Sale13.15161,8552,128,393926,111Aug 16 07:02 PM
VGMASAREK ALANChief Executive OfficerAug 15Sale13.18197,3082,600,519728,803Aug 16 07:02 PM
VGMASAREK ALANChief Executive OfficerAug 16Sale13.34200,0002,668,000528,803Aug 16 07:02 PM
CDKBrunz Lee J.General Counsel and SecretaryAug 14Sale43.3050021,65040,628Aug 16 07:00 PM
AYXStoecker DeanChairman of the Board & CEOAug 15Sale130.7576,2899,974,6620Aug 16 07:00 PM
PRSCDOTTS KEVIN MChief Financial OfficerAug 16Buy57.8086449,939864Aug 16 06:59 PM
WBAPagni Marco Patrick AnthonyEVP, Global CAO and GCAug 14Sale51.0477,9603,979,078357,851Aug 16 06:40 PM
WBAPagni Marco Patrick AnthonyEVP, Global CAO and GCAug 14Sale51.0013,867707,2170Aug 16 06:40 PM
WBAPagni Marco Patrick AnthonyEVP, Global CAO and GCAug 15Sale50.06123,4966,182,210234,355Aug 16 06:40 PM
CSLTNolan Mangini SiobhanCFO & TreasurerAug 15Option Exercise0.001,8750279,762Aug 16 06:37 PM
CSLTNolan Mangini SiobhanCFO & TreasurerAug 16Sale1.38652900279,110Aug 16 06:37 PM
BSETSPILMAN ROBERT H JRChairman & CEOAug 15Buy11.902,00023,800190,000Aug 16 06:22 PM
BCEIGarbiso SandraVice President and CAOAug 14Sale21.992,81361,85811,060Aug 16 06:20 PM
HOPEKoh StevenDirectorAug 16Sale13.5810,000135,84844,014Aug 16 06:20 PM
AZOGRAVES EARL G JRDirectorAug 15Option Exercise159.1850079,5904,607Aug 16 06:18 PM
AZOGRAVES EARL G JRDirectorAug 15Sale1077.04500538,5204,107Aug 16 06:18 PM
PSMTPRICE ROBERT EDirectorAug 15Sale56.3210,000563,1981,407,757Aug 16 06:17 PM
PSMTPrice Philanthropies Foundatio10% OwnerAug 15Sale56.2910,000562,8934,338,455Aug 16 06:16 PM
MTCHSine Jared F.Chief Legal OfficerAug 14Option Exercise14.2716,500235,40439,649Aug 16 06:13 PM
MTCHSine Jared F.Chief Legal OfficerAug 15Option Exercise14.2749,167701,46174,368Aug 16 06:13 PM
MTCHSine Jared F.Chief Legal OfficerAug 15Sale82.2818,4881,521,18531,364Aug 16 06:13 PM
MTCHSine Jared F.Chief Legal OfficerAug 14Sale79.476,153488,97225,201Aug 16 06:13 PM
TTEKVolpi Kirsten MDirectorAug 14Option Exercise23.524,00094,08015,378Aug 16 06:09 PM
TTEKVolpi Kirsten MDirectorAug 14Sale78.004,000312,00011,378Aug 16 06:09 PM
TTEKTHOMPSON J KENNETHDirectorAug 16Option Exercise24.264,200101,89224,376Aug 16 06:08 PM
TTEKTHOMPSON J KENNETHDirectorAug 16Sale80.084,200336,34520,176Aug 16 06:08 PM
TTEKSHOEMAKER LESLIE LEVP, OperationsAug 14Option Exercise22.5316,750377,37879,258Aug 16 06:08 PM
TTEKSHOEMAKER LESLIE LEVP, OperationsAug 14Sale77.4316,7501,296,87062,508Aug 16 06:08 PM
SBACKrouse George R JrDirectorAug 14Sale258.26620160,12110,000Aug 16 06:05 PM
ALGLeonard Jeffery AllenEVP Industrial DivisionAug 14Sale106.181,000106,18414,900Aug 16 06:04 PM
MGPIGall BrandonVP and Chief Financial OfficerAug 06Buy54.3025013,57511,183Aug 16 05:56 PM
ALGMalone Dan EdwardExecutive VP & CFOAug 16Sale108.731,200130,47015,550Aug 16 05:53 PM
PEGAWEBER LARRYDirectorAug 15Option Exercise0.001,43703,590Aug 16 05:50 PM
SNESDyer Cheryl AnnPres. & Chief Research OfficerAug 14Sale1.1820,00023,622396,091Aug 16 05:46 PM
SNESDyer Cheryl AnnPres. & Chief Research OfficerAug 15Sale1.2120,00024,100376,091Aug 16 05:46 PM
SNESMayer Loretta PowersChief Scientific OfficerAug 14Sale1.2420,00024,756391,165Aug 16 05:46 PM
SNESMayer Loretta PowersChief Scientific OfficerAug 15Sale1.1920,00023,734371,165Aug 16 05:46 PM
CYTKBlum Robert IPresident & CEOAug 15Sale12.646,00075,815250,022Aug 16 05:45 PM
CLVSSPICKSCHEN THORLEFDirectorAug 16Buy5.678,60048,76258,176Aug 16 05:45 PM
RLLauren Family, L.L.C.10% OwnerAug 15Sale85.0635,7143,037,74135,714Aug 16 05:44 PM
CRZOJOHNSON S P IVPresident and CEOAug 15Sale8.268,00066,116179,221Aug 16 05:41 PM
ROSEOwen Robert CraigChief Financial OfficerAug 14Buy1.557,42011,501778,356Aug 16 05:41 PM
ROSEOwen Robert CraigChief Financial OfficerAug 15Buy1.417801,100779,136Aug 16 05:41 PM
PEGARowlands Sharon TDirectorAug 15Option Exercise0.001,437015,159Aug 16 05:41 PM
INUVPISARIS JOHN BGeneral CounselAug 14Option Exercise0.0016,3330341,176Aug 16 05:40 PM
INUVRUIZ WALLACE DCFOAug 14Option Exercise0.0035,0000372,112Aug 16 05:40 PM
INUVHowe Richard KChairman & CEOAug 14Option Exercise0.0098,00001,091,944Aug 16 05:40 PM
INUVBARRETT DON WALKER IIIChief Operating OfficerAug 14Option Exercise0.0046,6670376,404Aug 16 05:40 PM
ROSEQuarls HarryDirectorAug 14Buy1.578,10012,717177,260Aug 16 05:40 PM
ROSEQuarls HarryDirectorAug 15Buy1.479,91114,569187,171Aug 16 05:40 PM
ROSEQuarls HarryDirectorAug 16Buy1.436,9899,994194,160Aug 16 05:40 PM
ANIPMERIDIAN VENTURE PARTNERS II L10% OwnerAug 14Sale69.8926,3601,842,3002,262,502Aug 16 05:38 PM
ANIPMERIDIAN VENTURE PARTNERS II L10% OwnerAug 15Sale69.349,315645,9022,253,187Aug 16 05:38 PM
ANIPMERIDIAN VENTURE PARTNERS II L10% OwnerAug 16Sale68.0926,3491,794,1032,226,838Aug 16 05:38 PM
PEGAOHALLORAN JAMES PDirectorAug 15Option Exercise0.001,4370115,780Aug 16 05:36 PM
HONAdamczyk DariusChairman and CEOAug 16Sale165.087,1491,180,15775,521Aug 16 05:36 PM
CNBKAFiller James J10% OwnerAug 12Buy81.2050040,600716,510Aug 16 05:33 PM
CNBKAFiller James J10% OwnerAug 13Buy81.7450040,870717,010Aug 16 05:33 PM
CNBKAFiller James J10% OwnerAug 14Buy81.3020016,260717,210Aug 16 05:33 PM
CNBKAFiller James J10% OwnerAug 15Buy80.1260048,070717,810Aug 16 05:33 PM
CNBKAFiller James J10% OwnerAug 16Buy80.9013110,598717,941Aug 16 05:33 PM
HRCJohnson Paul SherwoodSVP & Pres. - PSS Acute CareAug 14Option Exercise51.956,470336,1248,215Aug 16 05:32 PM
HRCJohnson Paul SherwoodSVP & Pres. - PSS Acute CareAug 14Sale104.266,470674,5524,564Aug 16 05:32 PM
CSWIArmes Joseph BChairman, President & CEOAug 15Sale68.8815,0001,033,19352,140Aug 16 05:32 PM
CSWIArmes Joseph BChairman, President & CEOAug 16Sale69.0410,000690,40038,978Aug 16 05:32 PM
PEGALEDINGHAM DIANNEDirectorAug 15Option Exercise0.001,43709,100Aug 16 05:32 PM
MASILee YongsamEVP & CIOAug 14Option Exercise28.031303,64473,130Aug 16 05:32 PM
MASILee YongsamEVP & CIOAug 16Option Exercise28.032,45468,78675,454Aug 16 05:32 PM
MASILee YongsamEVP & CIOAug 16Sale151.402,454371,54873,000Aug 16 05:32 PM
MASILee YongsamEVP & CIOAug 14Sale151.4713019,69173,000Aug 16 05:32 PM
HONBURKE KEVINDirectorAug 15Option Exercise45.812,624120,20517,706Aug 16 05:31 PM
WENTRIAN FUND MANAGEMENT, L.P.10% OwnerAug 15Sale19.90475,0009,453,26028,155,629Aug 16 05:31 PM
WENTRIAN FUND MANAGEMENT, L.P.10% OwnerAug 16Sale19.991,525,00030,481,70026,630,629Aug 16 05:31 PM
ATNXPERCEPTIVE ADVISORS LLC10% OwnerAug 15Buy15.0030,000450,00010,615,245Aug 16 05:31 PM
ATNXPERCEPTIVE ADVISORS LLC10% OwnerAug 16Buy14.9620,000299,20010,635,245Aug 16 05:31 PM
WENTRIAN FUND MANAGEMENT, L.P.10% OwnerAug 15Sale19.90475,0009,453,26028,155,629Aug 16 05:31 PM
WENTRIAN FUND MANAGEMENT, L.P.10% OwnerAug 16Sale19.991,525,00030,481,70026,630,629Aug 16 05:31 PM
WENPeltz Matthew H.DirectorAug 15Sale19.90475,0009,453,26028,155,629Aug 16 05:30 PM
WENPeltz Matthew H.DirectorAug 16Sale19.991,525,00030,481,70026,630,629Aug 16 05:30 PM
WENGARDEN EDWARD P10% OwnerAug 15Sale19.90475,0009,453,26028,155,629Aug 16 05:30 PM
WENGARDEN EDWARD P10% OwnerAug 16Sale19.991,525,00030,481,70026,630,629Aug 16 05:30 PM
WENMAY PETER WDirectorAug 15Sale19.90475,0009,453,26028,155,629Aug 16 05:29 PM
WENMAY PETER WDirectorAug 16Sale19.991,525,00030,481,70026,630,629Aug 16 05:29 PM
EESIEGEL ERIC BDirectorAug 14Sale66.3824,0941,599,30836,956Aug 16 05:29 PM
EESIEGEL ERIC BDirectorAug 15Sale66.407,406491,75826,450Aug 16 05:29 PM
EESIEGEL ERIC BDirectorAug 15Sale66.413,500232,4355,475Aug 16 05:29 PM
PEGALAFOND CHRISTOPHERDirectorAug 15Option Exercise0.001,43701,734Aug 16 05:24 PM
HLBoggs Catherine JDirectorAug 16Buy1.5040,54060,80640,540Aug 16 05:22 PM
STKLVersteegh Geradus Joseph MariaSVP & GMAug 14Buy2.0850,000104,195185,889Aug 16 05:22 PM
STKLVersteegh Geradus Joseph MariaSVP & GMAug 15Buy2.2150,000110,625235,889Aug 16 05:22 PM
CLCOOK IAN MExecutive ChairmanAug 15Sale71.2119,5001,388,5651,088,542Aug 16 05:21 PM
UALSHAPIRO EDWARDDirectorAug 14Buy82.0010,000820,000182,707Aug 16 05:19 PM
OASReid Taylor LPresident and COOAug 14Buy2.7645,060124,3661,462,819Aug 16 05:17 PM
OASReid Taylor LPresident and COOAug 14Buy2.7723,18864,231548,188Aug 16 05:17 PM
WMacri EdmondChief Product/MarketingAug 13Sale124.6330037,389257,695Aug 16 05:16 PM
OASNusz Thomas BChairman and CEOAug 14Buy2.7630,00082,8001,830,332Aug 16 05:15 PM
EEWERTHEIMER STEPHENDirectorAug 16Sale66.4025,0001,660,10327,376Aug 16 05:15 PM
IBOCDE ANDA JAVIERDirectorAug 14Buy32.804,533148,68216,730Aug 16 05:14 PM
IBOCDE ANDA JAVIERDirectorAug 14Buy32.835,000164,1505,000Aug 16 05:14 PM
CFRALVAREZ CARLOSDirectorAug 16Buy85.0830,0002,552,400454,000Aug 16 05:12 PM
CPIXBernard Gordon RDirectorAug 01Sale5.968004,76847,430Aug 16 05:11 PM
CPIXBernard Gordon RDirectorAug 02Sale6.074002,42847,030Aug 16 05:11 PM
CPIXBernard Gordon RDirectorAug 05Sale6.081,5009,12045,530Aug 16 05:11 PM
CPIXBernard Gordon RDirectorAug 07Sale5.987004,18644,830Aug 16 05:11 PM
CPIXBernard Gordon RDirectorAug 08Sale6.015023,01744,328Aug 16 05:11 PM
CPIXBernard Gordon RDirectorAug 09Sale5.791881,08944,140Aug 16 05:11 PM
open in screener